QPF
0.00 0.00 0.00 0.01 0.01 0.01 0.01 0.01 0.02 0.01 0.01 0.00 0.00 0.00 0.00 0.00 0.00 0.00 0.00 0.00 0.00 0.01 0.01 0.01 0.02 0.05 0.07 0.10 0.11 0.11 0.13 0.16 0.18 0.19 0.17 0.12 0.10 0.10
0.00 0.00 0.00 0.00 0.00 0.00 0.00 0.00 0.00 0.01 0.01 0.00 0.00 0.00 0.00 0.00 0.00 0.00 0.00 0.00 0.00 0.01 0.01 0.01 0.02 0.03 0.05 0.06 0.06 0.07 0.10 0.11 0.12 0.14 0.15 0.15 0.13 0.12
0.00 0.00 0.00 0.00 0.00 0.00 0.00 0.00 0.00 0.00 0.00 0.00 0.00 0.00 0.00 0.00 0.00 0.00 0.00 0.00 0.00 0.01 0.01 0.01 0.02 0.03 0.04 0.05 0.05 0.06 0.07 0.08 0.09 0.10 0.12 0.13 0.12 0.11
0.00 0.00 0.00 0.00 0.00 0.00 0.00 0.00 0.00 0.00 0.00 0.00 0.00 0.00 0.00 0.00 0.00 0.00 0.00 0.00 0.00 0.00 0.01 0.01 0.02 0.03 0.04 0.05 0.05 0.06 0.07 0.08 0.08 0.09 0.09 0.09 0.08 0.08
0.00 0.00 0.00 0.00 0.00 0.00 0.00 0.00 0.00 0.00 0.00 0.00 0.00 0.00 0.00 0.00 0.00 0.00 0.00 0.00 0.00 0.00 0.00 0.01 0.02 0.03 0.04 0.04 0.04 0.04 0.05 0.06 0.06 0.06 0.07 0.07 0.07 0.07
0.00 0.00 0.00 0.00 0.00 0.00 0.00 0.00 0.00 0.00 0.00 0.00 0.00 0.00 0.00 0.00 0.00 0.00 0.00 0.00 0.00 0.00 0.00 0.01 0.01 0.01 0.01 0.01 0.01 0.01 0.02 0.02 0.03 0.04 0.04 0.04 0.04 0.05
0.00 0.00 0.00 0.00 0.00 0.00 0.00 0.00 0.00 0.00 0.00 0.00 0.00 0.00 0.00 0.00 0.00 0.00 0.00 0.00 0.00 0.00 0.00 0.00 0.00 0.00 0.00 0.00 0.00 0.00 0.00 0.00 0.01 0.01 0.01 0.01 0.02 0.02
0.00 0.00 0.00 0.00 0.00 0.00 0.00 0.00 0.00 0.00 0.00 0.00 0.00 0.00 0.00 0.00 0.00 0.00 0.00 0.00 0.00 0.00 0.00 0.00 0.00 0.00 0.00 0.00 0.00 0.00 0.00 0.00 0.00 0.00 0.00 0.00 0.00 0.00
0.00 0.00 0.00 0.00 0.00 0.00 0.00 0.00 0.00 0.00 0.00 0.00 0.00 0.00 0.00 0.00 0.00 0.00 0.00 0.00 0.00 0.00 0.00 0.00 0.00 0.00 0.00 0.00 0.00 0.00 0.00 0.00 0.00 0.00 0.00 0.00 0.00 0.00
0.00 0.00 0.00 0.00 0.00 0.00 0.00 0.00 0.00 0.00 0.00 0.00 0.00 0.00 0.00 0.00 0.00 0.00 0.00 0.00 0.00 0.00 0.00 0.00 0.00 0.00 0.00 0.00 0.00 0.00 0.00 0.00 0.00 0.00 0.00 0.00 0.00 0.00
0.00 0.00 0.00 0.00 0.00 0.00 0.00 0.00 0.00 0.00 0.00 0.00 0.00 0.00 0.00 0.00 0.00 0.00 0.00 0.00 0.00 0.00 0.00 0.00 0.00 0.00 0.00 0.00 0.00 0.00 0.00 0.00 0.00 0.00 0.00 0.00 0.00 0.00
0.00 0.00 0.00 0.00 0.00 0.00 0.00 0.00 0.00 0.00 0.00 0.00 0.00 0.00 0.00 0.00 0.00 0.00 0.00 0.00 0.00 0.00 0.00 0.00 0.00 0.00 0.00 0.00 0.00 0.00 0.00 0.00 0.00 0.00 0.00 0.00 0.00 0.00
0.00 0.00 0.00 0.00 0.00 0.00 0.00 0.00 0.00 0.00 0.00 0.00 0.00 0.00 0.00 0.00 0.00 0.00 0.00 0.00 0.00 0.00 0.00 0.00 0.00 0.00 0.00 0.00 0.00 0.00 0.00 0.00 0.00 0.00 0.00 0.00 0.00 0.00
0.00 0.00 0.00 0.00 0.00 0.00 0.00 0.00 0.00 0.00 0.00 0.00 0.00 0.00 0.00 0.00 0.00 0.00 0.00 0.00 0.00 0.00 0.00 0.00 0.00 0.00 0.00 0.00 0.00 0.00 0.00 0.00 0.00 0.00 0.00 0.00 0.00 0.00
0.00 0.00 0.00 0.00 0.00 0.00 0.00 0.00 0.00 0.00 0.00 0.00 0.00 0.00 0.00 0.00 0.00 0.00 0.00 0.00 0.00 0.00 0.00 0.00 0.00 0.00 0.00 0.00 0.00 0.00 0.00 0.00 0.00 0.00 0.00 0.00 0.00 0.00
0.00 0.00 0.00 0.00 0.00 0.00 0.00 0.00 0.00 0.00 0.00 0.00 0.00 0.00 0.00 0.00 0.00 0.00 0.00 0.00 0.00 0.00 0.00 0.00 0.00 0.00 0.00 0.00 0.00 0.00 0.00 0.00 0.00 0.00 0.00 0.00 0.00 0.00
0.00 0.00 0.00 0.00 0.00 0.00 0.00 0.00 0.00 0.00 0.00 0.00 0.00 0.00 0.00 0.00 0.00 0.00 0.00 0.00 0.00 0.00 0.00 0.00 0.00 0.00 0.00 0.00 0.00 0.00 0.00 0.00 0.00 0.00 0.00 0.00 0.00 0.00
0.00 0.00 0.00 0.00 0.00 0.00 0.00 0.00 0.00 0.00 0.00 0.00 0.00 0.00 0.00 0.00 0.00 0.00 0.00 0.00 0.00 0.00 0.00 0.00 0.00 0.00 0.00 0.00 0.00 0.00 0.00 0.00 0.00 0.00 0.00 0.00 0.00 0.00
0.00 0.00 0.00 0.00 0.00 0.00 0.00 0.00 0.00 0.00 0.00 0.00 0.00 0.00 0.00 0.00 0.00 0.00 0.00 0.00 0.00 0.00 0.00 0.00 0.00 0.01 0.01 0.00 0.00 0.00 0.00 0.00 0.00 0.00 0.00 0.00 0.00 0.00
0.00 0.00 0.00 0.00 0.00 0.00 0.00 0.00 0.00 0.00 0.00 0.00 0.00 0.00 0.00 0.00 0.00 0.00 0.00 0.00 0.00 0.00 0.00 0.00 0.00 0.01 0.01 0.01 0.00 0.00 0.00 0.00 0.00 0.00 0.00 0.00 0.00 0.00
0.00 0.00 0.00 0.00 0.00 0.00 0.00 0.00 0.00 0.00 0.00 0.00 0.00 0.00 0.00 0.00 0.00 0.00 0.00 0.00 0.00 0.00 0.00 0.00 0.00 0.00 0.01 0.03 0.02 0.00 0.00 0.00 0.00 0.00 0.00 0.01 0.01 0.00
0.00 0.00 0.00 0.00 0.00 0.00 0.00 0.00 0.00 0.00 0.00 0.00 0.00 0.00 0.00 0.00 0.00 0.00 0.00 0.00 0.00 0.00 0.00 0.00 0.00 0.01 0.02 0.03 0.01 0.00 0.00 0.00 0.00 0.00 0.00 0.01 0.01 0.01
0.00 0.00 0.00 0.00 0.00 0.00 0.00 0.00 0.00 0.00 0.00 0.00 0.00 0.00 0.00 0.00 0.00 0.00 0.00 0.00 0.01 0.00 0.00 0.00 0.00 0.01 0.01 0.02 0.01 0.01 0.00 0.00 0.00 0.00 0.00 0.00 0.00 0.00
MSLP
1019.47 1019.54 1019.61 1019.63 1019.61 1019.54 1019.44 1019.36 1019.31 1019.35 1019.47 1019.69 1019.99 1020.32 1020.66 1020.95 1021.16 1021.26 1021.25 1021.13 1020.92 1020.64 1020.31 1019.96 1019.59 1019.24 1018.90 1018.60 1018.36 1018.19 1018.12 1018.17 1018.33 1018.63 1019.04 1019.54 1020.09 1020.65
1019.77 1019.86 1019.92 1019.96 1019.95 1019.90 1019.83 1019.77 1019.75 1019.80 1019.92 1020.12 1020.38 1020.67 1020.96 1021.21 1021.39 1021.47 1021.46 1021.35 1021.15 1020.90 1020.59 1020.26 1019.91 1019.56 1019.22 1018.91 1018.64 1018.44 1018.33 1018.33 1018.45 1018.70 1019.06 1019.50 1020.01 1020.53
1020.18 1020.27 1020.35 1020.39 1020.40 1020.37 1020.33 1020.29 1020.29 1020.35 1020.47 1020.64 1020.87 1021.12 1021.35 1021.55 1021.68 1021.73 1021.70 1021.59 1021.41 1021.18 1020.90 1020.60 1020.29 1019.96 1019.65 1019.34 1019.08 1018.88 1018.76 1018.74 1018.83 1019.03 1019.34 1019.72 1020.16 1020.62
1020.64 1020.75 1020.84 1020.89 1020.91 1020.91 1020.89 1020.88 1020.90 1020.97 1021.08 1021.24 1021.43 1021.63 1021.81 1021.95 1022.04 1022.05 1021.99 1021.88 1021.70 1021.49 1021.25 1020.99 1020.71 1020.43 1020.15 1019.88 1019.64 1019.46 1019.34 1019.31 1019.38 1019.55 1019.81 1020.13 1020.50 1020.88
1021.15 1021.27 1021.36 1021.43 1021.46 1021.47 1021.47 1021.48 1021.52 1021.60 1021.71 1021.86 1022.02 1022.18 1022.31 1022.40 1022.44 1022.42 1022.34 1022.21 1022.04 1021.85 1021.63 1021.41 1021.17 1020.93 1020.69 1020.46 1020.26 1020.10 1020.00 1019.97 1020.03 1020.17 1020.38 1020.64 1020.94 1021.23
1021.64 1021.78 1021.88 1021.95 1021.99 1022.00 1022.02 1022.04 1022.10 1022.18 1022.29 1022.42 1022.56 1022.69 1022.79 1022.84 1022.85 1022.80 1022.71 1022.57 1022.41 1022.24 1022.04 1021.85 1021.64 1021.44 1021.24 1021.04 1020.87 1020.73 1020.64 1020.61 1020.65 1020.76 1020.92 1021.13 1021.36 1021.58
1022.10 1022.24 1022.34 1022.40 1022.44 1022.45 1022.47 1022.50 1022.56 1022.64 1022.75 1022.88 1023.00 1023.11 1023.18 1023.22 1023.21 1023.15 1023.06 1022.93 1022.79 1022.63 1022.46 1022.29 1022.11 1021.93 1021.75 1021.57 1021.41 1021.28 1021.19 1021.14 1021.16 1021.23 1021.35 1021.50 1021.66 1021.81
1022.48 1022.61 1022.70 1022.75 1022.77 1022.78 1022.80 1022.82 1022.88 1022.96 1023.06 1023.17 1023.29 1023.38 1023.45 1023.48 1023.48 1023.43 1023.35 1023.25 1023.13 1023.00 1022.86 1022.71 1022.55 1022.38 1022.21 1022.03 1021.86 1021.71 1021.60 1021.52 1021.50 1021.52 1021.59 1021.68 1021.78 1021.87
1022.74 1022.85 1022.93 1022.96 1022.97 1022.97 1022.97 1022.99 1023.04 1023.11 1023.20 1023.31 1023.41 1023.50 1023.57 1023.62 1023.63 1023.61 1023.56 1023.50 1023.42 1023.32 1023.21 1023.08 1022.94 1022.78 1022.60 1022.40 1022.21 1022.03 1021.87 1021.75 1021.67 1021.63 1021.64 1021.67 1021.72 1021.76
1022.86 1022.96 1023.01 1023.04 1023.04 1023.03 1023.02 1023.04 1023.07 1023.13 1023.20 1023.30 1023.40 1023.49 1023.57 1023.63 1023.67 1023.68 1023.68 1023.67 1023.63 1023.58 1023.50 1023.40 1023.27 1023.11 1022.92 1022.70 1022.47 1022.24 1022.03 1021.85 1021.71 1021.60 1021.55 1021.52 1021.52 1021.52
1022.83 1022.92 1022.97 1023.00 1023.00 1022.99 1022.99 1022.99 1023.02 1023.07 1023.13 1023.21 1023.30 1023.39 1023.48 1023.56 1023.63 1023.68 1023.73 1023.76 1023.77 1023.76 1023.72 1023.65 1023.54 1023.38 1023.17 1022.93 1022.67 1022.40 1022.13 1021.89 1021.68 1021.51 1021.39 1021.31 1021.25 1021.22
1022.68 1022.77 1022.83 1022.87 1022.89 1022.90 1022.91 1022.92 1022.95 1022.99 1023.04 1023.11 1023.19 1023.28 1023.37 1023.46 1023.55 1023.64 1023.72 1023.79 1023.85 1023.88 1023.88 1023.83 1023.73 1023.58 1023.37 1023.12 1022.82 1022.52 1022.20 1021.91 1021.64 1021.42 1021.24 1021.10 1021.01 1020.94
1022.41 1022.52 1022.62 1022.69 1022.74 1022.79 1022.82 1022.85 1022.89 1022.93 1022.99 1023.05 1023.12 1023.20 1023.28 1023.37 1023.47 1023.58 1023.68 1023.79 1023.87 1023.93 1023.95 1023.93 1023.84 1023.70 1023.50 1023.24 1022.93 1022.60 1022.26 1021.93 1021.63 1021.36 1021.13 1020.95 1020.81 1020.71
1022.07 1022.22 1022.36 1022.48 1022.58 1022.67 1022.75 1022.81 1022.87 1022.92 1022.97 1023.03 1023.09 1023.16 1023.23 1023.32 1023.42 1023.52 1023.63 1023.74 1023.84 1023.91 1023.94 1023.93 1023.86 1023.72 1023.52 1023.27 1022.97 1022.63 1022.28 1021.94 1021.61 1021.31 1021.04 1020.82 1020.65 1020.51
1021.68 1021.88 1022.07 1022.25 1022.41 1022.55 1022.67 1022.77 1022.85 1022.92 1022.98 1023.04 1023.09 1023.15 1023.21 1023.28 1023.37 1023.46 1023.56 1023.66 1023.75 1023.81 1023.84 1023.82 1023.75 1023.62 1023.43 1023.18 1022.89 1022.56 1022.22 1021.87 1021.53 1021.21 1020.93 1020.68 1020.46 1020.29
1021.25 1021.50 1021.75 1021.98 1022.20 1022.39 1022.55 1022.69 1022.80 1022.89 1022.96 1023.02 1023.07 1023.12 1023.18 1023.23 1023.30 1023.37 1023.45 1023.52 1023.58 1023.61 1023.62 1023.58 1023.50 1023.36 1023.17 1022.93 1022.65 1022.34 1022.01 1021.67 1021.33 1021.01 1020.70 1020.43 1020.18 1019.97
1020.79 1021.08 1021.37 1021.65 1021.91 1022.14 1022.35 1022.52 1022.65 1022.76 1022.85 1022.92 1022.97 1023.03 1023.07 1023.12 1023.17 1023.22 1023.26 1023.30 1023.32 1023.32 1023.28 1023.21 1023.10 1022.94 1022.75 1022.51 1022.23 1021.93 1021.61 1021.28 1020.95 1020.63 1020.31 1020.01 1019.74 1019.48
1020.28 1020.60 1020.92 1021.23 1021.52 1021.77 1022.00 1022.19 1022.35 1022.48 1022.59 1022.67 1022.74 1022.80 1022.85 1022.90 1022.94 1022.97 1022.98 1022.98 1022.96 1022.91 1022.83 1022.71 1022.56 1022.38 1022.16 1021.91 1021.64 1021.34 1021.03 1020.70 1020.37 1020.04 1019.72 1019.40 1019.09 1018.80
1019.70 1020.04 1020.37 1020.69 1020.99 1021.26 1021.50 1021.70 1021.88 1022.03 1022.15 1022.26 1022.35 1022.43 1022.49 1022.55 1022.58 1022.60 1022.60 1022.56 1022.50 1022.41 1022.28 1022.12 1021.92 1021.70 1021.46 1021.19 1020.90 1020.60 1020.28 1019.96 1019.63 1019.29 1018.96 1018.62 1018.28 1017.96
1019.06 1019.39 1019.72 1020.03 1020.33 1020.60 1020.84 1021.05 1021.24 1021.41 1021.55 1021.68 1021.80 1021.91 1021.99 1022.06 1022.11 1022.12 1022.11 1022.06 1021.96 1021.83 1021.66 1021.46 1021.22 1020.97 1020.69 1020.40 1020.09 1019.78 1019.46 1019.13 1018.79 1018.45 1018.09 1017.74 1017.39 1017.04
1018.34 1018.66 1018.98 1019.28 1019.57 1019.83 1020.07 1020.29 1020.49 1020.67 1020.84 1020.99 1021.14 1021.27 1021.38 1021.47 1021.53 1021.55 1021.53 1021.47 1021.36 1021.20 1021.00 1020.77 1020.50 1020.21 1019.91 1019.60 1019.28 1018.95 1018.62 1018.28 1017.93 1017.58 1017.21 1016.84 1016.47 1016.11
1017.58 1017.88 1018.18 1018.47 1018.75 1019.01 1019.24 1019.47 1019.67 1019.87 1020.06 1020.24 1020.40 1020.56 1020.70 1020.81 1020.88 1020.91 1020.90 1020.83 1020.71 1020.53 1020.32 1020.06 1019.78 1019.47 1019.15 1018.82 1018.49 1018.15 1017.81 1017.46 1017.11 1016.74 1016.37 1015.99 1015.61 1015.24
1016.82 1017.10 1017.39 1017.67 1017.93 1018.19 1018.42 1018.65 1018.87 1019.07 1019.28 1019.47 1019.66 1019.83 1019.98 1020.10 1020.18 1020.22 1020.21 1020.14 1020.01 1019.84 1019.61 1019.35 1019.05 1018.74 1018.41 1018.07 1017.73 1017.39 1017.04 1016.68 1016.32 1015.95 1015.57 1015.19 1014.80 1014.42
Thickness
5589 5588 5587 5584 5582 5580 5578 5576 5574 5572 5568 5562 5554 5549 5546 5543 5541 5539 5537 5536 5535 5535 5535 5535 5534 5533 5533 5532 5531 5529 5527 5525 5522 5518 5515 5511 5507 5504
5576 5575 5573 5571 5569 5567 5565 5563 5561 5559 5556 5549 5542 5538 5535 5533 5530 5528 5526 5525 5524 5524 5524 5524 5524 5523 5523 5522 5521 5520 5519 5516 5514 5511 5508 5504 5500 5497
5563 5561 5559 5557 5555 5553 5551 5550 5547 5545 5544 5537 5532 5528 5525 5521 5519 5518 5516 5515 5513 5513 5513 5513 5513 5512 5511 5511 5510 5509 5508 5507 5505 5503 5500 5496 5493 5490
5549 5548 5546 5544 5541 5539 5537 5536 5534 5532 5530 5527 5522 5518 5514 5512 5510 5508 5507 5505 5503 5502 5502 5502 5501 5501 5500 5499 5498 5497 5496 5495 5494 5492 5490 5487 5485 5482
5535 5533 5532 5530 5527 5525 5524 5522 5521 5521 5519 5516 5511 5507 5505 5503 5501 5499 5498 5495 5494 5492 5491 5491 5490 5489 5488 5487 5486 5485 5484 5483 5482 5480 5478 5476 5474 5472
5520 5518 5517 5515 5513 5512 5511 5509 5509 5508 5507 5504 5501 5498 5495 5493 5491 5487 5486 5485 5483 5482 5481 5480 5479 5478 5477 5476 5474 5473 5472 5471 5469 5468 5466 5464 5463 5461
5506 5504 5502 5502 5501 5501 5499 5497 5497 5496 5495 5493 5491 5488 5484 5481 5478 5476 5475 5474 5473 5471 5470 5470 5469 5468 5466 5465 5463 5461 5460 5459 5458 5457 5455 5454 5452 5451
5493 5491 5490 5490 5489 5489 5488 5487 5486 5485 5482 5481 5479 5476 5472 5470 5468 5466 5463 5461 5460 5460 5458 5458 5459 5457 5456 5454 5452 5451 5449 5448 5446 5445 5444 5443 5441 5440
5481 5480 5480 5479 5478 5478 5477 5476 5475 5474 5473 5470 5467 5464 5461 5459 5457 5455 5452 5450 5448 5449 5448 5446 5447 5445 5445 5443 5441 5440 5438 5436 5435 5433 5432 5431 5429 5428
5470 5470 5469 5469 5469 5468 5467 5466 5465 5464 5462 5460 5457 5455 5452 5450 5448 5446 5443 5441 5441 5440 5438 5433 5433 5433 5434 5432 5430 5428 5426 5425 5423 5422 5420 5419 5417 5416
5461 5461 5461 5460 5461 5460 5458 5457 5455 5454 5453 5451 5448 5446 5444 5442 5439 5436 5432 5429 5427 5427 5425 5422 5420 5420 5420 5420 5419 5416 5414 5412 5411 5409 5407 5406 5405 5403
5453 5453 5454 5453 5452 5452 5449 5447 5446 5444 5443 5441 5439 5437 5435 5432 5429 5426 5422 5416 5413 5411 5412 5409 5406 5404 5402 5405 5405 5403 5401 5400 5398 5396 5394 5393 5392 5390
5446 5446 5445 5445 5444 5443 5442 5439 5438 5436 5434 5432 5429 5427 5425 5422 5419 5415 5412 5407 5402 5399 5399 5396 5392 5389 5386 5387 5390 5389 5388 5386 5384 5383 5381 5379 5378 5377
5440 5439 5438 5438 5436 5435 5433 5431 5430 5428 5424 5422 5420 5417 5414 5411 5408 5404 5401 5397 5394 5390 5387 5383 5379 5375 5372 5370 5371 5374 5373 5372 5371 5370 5368 5366 5364 5362
5434 5433 5432 5430 5429 5427 5425 5424 5421 5418 5415 5412 5410 5407 5404 5401 5398 5394 5391 5388 5384 5382 5378 5374 5370 5365 5360 5357 5357 5357 5356 5358 5357 5357 5355 5353 5350 5348
5428 5427 5426 5424 5421 5419 5417 5415 5412 5409 5406 5402 5400 5397 5394 5391 5387 5384 5380 5376 5373 5371 5369 5366 5361 5356 5351 5348 5345 5344 5342 5341 5344 5342 5341 5340 5338 5336
5422 5419 5417 5414 5412 5410 5408 5406 5403 5400 5397 5394 5390 5387 5384 5381 5377 5374 5369 5365 5361 5358 5356 5354 5350 5347 5342 5337 5335 5335 5333 5332 5331 5330 5328 5328 5328 5325
5416 5413 5410 5408 5406 5404 5402 5399 5396 5392 5389 5385 5381 5377 5373 5370 5366 5363 5359 5355 5351 5348 5345 5342 5339 5335 5332 5331 5328 5326 5323 5322 5321 5318 5316 5316 5318 5315
5411 5407 5405 5402 5400 5397 5394 5391 5387 5385 5381 5376 5372 5368 5364 5360 5356 5353 5349 5345 5342 5339 5335 5331 5327 5323 5320 5320 5321 5318 5314 5311 5308 5307 5305 5305 5307 5306
5406 5403 5400 5398 5395 5391 5388 5384 5380 5377 5373 5368 5364 5360 5355 5351 5347 5344 5340 5336 5332 5329 5326 5321 5317 5313 5310 5309 5309 5308 5303 5300 5297 5296 5295 5294 5295 5296
5402 5399 5396 5393 5389 5386 5382 5377 5373 5369 5365 5361 5357 5353 5348 5344 5340 5336 5331 5328 5324 5320 5317 5313 5309 5305 5302 5298 5299 5301 5295 5289 5287 5284 5283 5281 5284 5286
5398 5395 5392 5388 5384 5380 5375 5371 5366 5363 5359 5354 5350 5346 5341 5337 5332 5328 5323 5318 5315 5311 5308 5305 5300 5294 5290 5288 5290 5290 5288 5283 5279 5276 5275 5273 5271 5275
5395 5391 5387 5383 5379 5374 5369 5365 5360 5357 5353 5348 5344 5339 5335 5330 5325 5320 5315 5311 5306 5302 5298 5295 5291 5286 5282 5280 5279 5279 5277 5274 5272 5271 5270 5267 5266 5269